Details From CYYR - Goose Bay
To BGBW - Narsarsuaq
Flight Number -
Tags Generated
Created
Modified
Stats Distance 674 nm / 1,248 km
Max Altitude 0 ft / 0 m
Waypoints 3
Social Downloads 0
Likes 0
Share VATSIM

Download

Looking for another format? Having issues loading an existing format? Contact us
Advertisement - Login to hide

Notes

Generated

Route

CYYR NS BGBW

ID Type Via Altitude Latitude Longitude Leg Dist Tot Dist Heading (true) Name
O CYYR APT - 0 ft / 0 m 53.33389˚ -60.43639˚ - 0 nm - -
NS NDB - 0 ft / 0 m 60.90000˚ -46.01667˚ 651 nm 651 nm 40° / 52° NARSAQ NDB
O BGBW APT - 0 ft / 0 m 61.15435˚ -45.43692˚ 22 nm 673 nm 48° / 48° -

Altitude Profile

Advertisement - Login to hide

Weather


0- 5 10 15 20 25 30 35+ Temperature / ° C

Clouds and Precipitation
Forecast for 2018-05-23 00:00 UTC. Updated 36 minutes ago

Ground ~20,000 ft ~40,000 ft Winds

CYYR

Details ICAO CYYR (YYR)
Name Goose Bay
Region Canada
Timezone America/Goose_Bay (UTC-3.0)
Stats Elevation 160 ft / 49 m (AMSL)
Location 53.318820° -60.423890°
Runways 2
Magnetic Variation 20.869° W

METAR

CYYR 222300Z 08012G17KT 15SM FEW064 BKN083 BKN100 04/M05 A2973 RMK SC2AC4AC1 VIRGA SLP072

Decode

TAF

TAF CYYR 222330Z 2300/2324 08012KT P6SM BKN070 TEMPO 2300/2303 P6SM -SHRASN BKN040 BECMG 2300/2302 34008KT FM230600 32008KT P6SM FEW070 FM231400 32012KT P6SM BKN040 RMK NXT FCST BY 230600Z

Decode

Departure Runways

ID Width Length Bearing (true) Bearing (mag) Surface Threshold Offset Overrun Length
08 209 ft / 64 m 11,055 ft / 3,369 m 54.70° 75.57° Asphalt 0 ft / 0 m 1,000 ft / 305 m
16 200 ft / 61 m 9,515 ft / 2,900 m 132.96° 153.83° Asphalt 0 ft / 0 m 0 ft / 0 m
26 209 ft / 64 m 11,055 ft / 3,369 m 234.73° 255.60° Asphalt 0 ft / 0 m 1,000 ft / 305 m
34 200 ft / 61 m 9,515 ft / 2,900 m 312.99° 333.86° Asphalt 0 ft / 0 m 500 ft / 152 m

BGBW

Details ICAO BGBW (UAK)
Name Narsarsuaq
Region Greenland
Timezone America/Godthab (UTC-2.0)
Stats Elevation 112 ft / 34 m (AMSL)
Location 61.160516° -45.425976°
Runways 1
Magnetic Variation 22.774° W

METAR

BGBW 222250Z AUTO 20014KT 9999NDV FEW047/// BKN095/// 03/M03 Q0991

Decode

TAF

Not found

Destination Runways

ID Width Length Bearing (true) Bearing (mag) Surface Threshold Offset Overrun Length
07 148 ft / 45 m 5,921 ft / 1,805 m 40.57° 63.34° Concrete 0 ft / 0 m 0 ft / 0 m
25 148 ft / 45 m 5,921 ft / 1,805 m 220.58° 243.35° Concrete 0 ft / 0 m 279 ft / 85 m

Popular Alternatives